Showing default

IRIDIUM 163, 43575

Orbit data source: Space-Track

IRIDIUM 163, 43575 is a payload satellite owned by Iridium (US) in LEO that was launched on Wed, 25 Jul 2018 UTC via an FALCON 9 launch vehicle from the Air Force Western Test Range (AFWTR). Payload-class satellites include a variety of spacecraft equipped with specific instruments for various scientific and technological missions. These include communications satellites like Starlink; space stations such as the ISS; scientific satellites like the Hubble; Earth observation satellites from companies like Planet Labs, Umbra, and HawkEye 360; GPS; miniature CubeSats for education and research; and military/defense satellites.

Loading next visibility...
Identifier
43575, 2018-061G
Orbit
LEO
Last TLE update
18 hours ago
Origin
Manufacturer
NGIS SSG Gilbert
Mission
Operational Commercial Communications
Bus & Motor
ELITEBUS, Unknown motor
Mass
860 kg wet, 700 kg dry
Launch date (UTC)
2018-07-25 (7 years ago)
Launch vehicle
FALCON 9
Launch site
Air Force Western Test Range (AFWTR)
Object type
Payload
Rocket body
Debris
Shape & HBR
Trap Box + 2 Pan, 9.4 m
Radar Cross Section
14.423 m², Large (>1 m²)

Expand to show TLE details & history

TLE from 18 hours ago
0 IRIDIUM 163
1 43575U 18061G   25181.78854736  .00000015  00000-0 -15467-5 0  9990
2 43575  86.3979 203.5340 0002488  90.6957 269.4524 14.34217816363015
Epoch: 2025-06-30T18:55Z
TLE epoch observation values (Epoch: 2025-06-30T18:55:30.491Z)
Latitude
-0.00004°
Longitude
0.56363°
Altitude
780.735 km
Speed
7.463 km/s
True Right ascension
13h 34m 08s
True Declination
0° 00' 00"
Sunlit
Object was in daylight at epoch
Visualization orbit readout
Latitude
-33.47651°
Longitude
-2.12753°
Altitude
791.304 km
Speed
7.456 km/s
Apparent Right ascension
13h 08m 27s
Apparent Declination
-36° 24' 21"
Sunlit
Object is in daylight
Visualization observer readout
Local Sidereal Time
00:50:13
Azimuth
312.972° NW
Elevation
-84.984°
Doppler factor
1
Orbital elements
Apogee altitude
776.411 km
Perigee altitude
772.852 km
Semi-major axis
7,152.768 km
Eccentricity
0.00025
Inclination
86.3979°
RAAN
203.534°
Arg. of periapsis
90.6957°
True anomaly
Unknown
Mean anomaly
269.4524°
Eccentric anomaly
Unknown
Mean motion
3.58783 °/min
Orbital period
100.34 mins
BSTAR
-0.0000015467
Loading maneuver chart data...
Loading SW <> Apogee altitude chart data...
Loading historical data...
Loading historical data...
Loading historical data...
Loading historical data...
Loading historical data...
Loading historical data...
Loading historical data...

IRIDIUM 163 Visibility forecast

Observer location: undefined°, undefined°

Span
Click to sort rows by Start time (UTC) header in descending order
Start Az.
Max El. time (UTC)
Max El. Az.
Max El.
End time (UTC)
End Az.
9 mins2025-07-01 13:55:19.017Z348.343° N2025-07-01 13:59:19.017Z291.095° WNW40.637°2025-07-01 14:04:19.017Z193.242° SSW
7 mins2025-07-02 01:12:19.017Z131.657° SE2025-07-02 01:15:19.017Z79.931° E27.102°2025-07-02 01:19:19.017Z25.427° NE
6 mins2025-07-02 02:53:19.017Z238.253° WSW2025-07-02 02:55:19.017Z270.446° WNW24.932°2025-07-02 02:59:19.017Z332.621° NNW
|